Retour au catalogue

FENGYUN 1C DEB

ActifPO
NORAD 30821·DEBRIS·🇨🇳 China

Lancé May 10, 1999 depuis Taiyuan Satellite Launch Center

Loading…

Prochains Passages (prochaines 24 heures)

TLE

FraisSource: Space-Track

Époque: Sep 13, 2026, 23:00 UTC

1 30821U 99025AVF 26256.95871168  .00001387  00000-0  34812-3 0  9995
2 30821  99.1347  67.2352 0086063 102.8767  48.3230 14.50927974 27780

Suivez FENGYUN 1C DEB en temps réel avec AllMySat

Download on the App Store